Location: Johnson City
(36.3130°N, 82.3540°W)
Time: 17:38:50
(UTC-04:00)

ELECTRON R/B - Visible Passes

Search period start: 22 May 2018 00:00
Search period end: 01 June 2018 00:00
Orbit: 285 x 480 km, 82.9° (Epoch: 21 May)

Date Brightness Start Highest point End Pass type
(mag) Time Alt. Az. Time Alt. Az. Time Alt. Az.
22 May 4.9 22:18:40 10° N 22:20:41 56° NNW 22:20:41 56° NNW visible
23 May 6.7 21:23:43 10° ENE 21:24:31 11° ENE 21:24:55 11° E visible
23 May 7.7 22:56:35 10° WNW 22:57:12 11° W 22:57:12 11° W visible
24 May 4.2 21:58:26 10° N 22:00:52 80° E 22:01:24 49° SSE visible
25 May 7.4 22:35:40 10° WNW 22:36:56 13° W 22:37:51 11° WSW visible
26 May 4.3 21:37:56 10° N 21:40:23 62° E 21:42:00 19° SSE visible
27 May 7.3 22:14:40 10° NW 22:16:20 16° W 22:18:02 10° SW visible
28 May 4.7 21:17:11 10° N 21:19:37 48° E 21:22:08 10° SSE visible
29 May 7.1 21:53:29 10° NW 21:55:26 20° W 21:57:28 10° SW visible
31 May 6.8 21:32:04 10° NW 21:34:16 25° W 21:36:34 10° SSW visible
